Flag for Iran Weather past 2 weeks in Behbahan, Iran

Now
75 °F

Sunny.


Feels Like: 77 °F
Forecast: 55 / 84 °F
Wind: No wind

Location: Gach Saran Du Gunbadan

Current Time: Mar 28, 2015 at 2:52:22 PM

Latest Report: Mar 28, 2015 at 1:30 PM


Visibility: 10 mi

Pressure: 30.09 "Hg

Humidity: 29%

Dew point: 41 °F

Location of BehbahanLocation

Historic Weather in Behbahan — Graph

°F

Behbahan temperature yesterday

Maximum temperature yesterday: 73 °F (at 4:30 PM)
Minimum temperature yesterday: 54 °F (at 8:30 AM)
Average temperature yesterday: 63 °F

Past Weeks' High & Low Weather Summary

 TemperatureHumidityPressure
High79 °F (Mar 16, 1:27 PM)100% (Mar 18, 2:30 PM)30.18 "Hg (Mar 18, 2:30 PM)
Low45 °F (Mar 24, 3:30 AM)12% (Mar 25, 5:30 PM)29.95 "Hg (Mar 22, 6:30 PM)
Average62 °F69%30.06 "Hg
* Reported Mar 16 1:27 PM — Mar 28 1:30 PM, Behbahan, Weather by CustomWeather, © 2015

Note: Actual official high and low records may vary slightly from our data, if they occured in-between our weather recording intervals... More about our weather records

Advertising

Behbahan weather history for previous 24 hours

 ConditionsComfort  
Time TempWeatherWind HumidityBarometerVisibility
1:30 PM
Sat, Mar 28
75 °FSunny.No wind29%30.09 "Hg10 mi
12:30 PM73 °FSunny.No wind29%30.12 "Hg10 mi
11:30 AM72 °FSunny.No wind31%30.15 "Hg10 mi
10:30 AM68 °FSunny.No wind43%30.12 "Hg10 mi
9:30 AM64 °FSunny.No wind52%30.12 "Hg10 mi
8:30 AM55 °FClear.No wind88%30.09 "Hg10 mi
7:30 AM52 °FClear.No wind88%30.07 "Hg10 mi
6:30 AM50 °FClear.No wind94%30.07 "Hg5 mi
5:30 AM50 °FClear.No wind76%30.07 "Hg10 mi
3:30 AM54 °FClear.No wind88%30.07 "Hg10 mi
2:28 AM54 °FClear.No wind88%30.07 "Hg10 mi
1:30 AM55 °FClear.No wind82%30.07 "Hg10 mi
12:31 AM59 °FClear.5 mph68%30.07 "Hg10 mi
11:30 PM
Fri, Mar 27
61 °FClear.No wind63%30.07 "Hg10 mi
10:30 PM61 °FClear.No wind59%30.07 "Hg10 mi
9:24 PM63 °FClear.No wind59%30.07 "Hg10 mi
8:30 PM64 °FSunny.No wind68%30.07 "Hg10 mi
7:30 PM68 °FSunny.No wind33%30.04 "Hg10 mi
6:30 PM72 °FPassing clouds.No wind27%30.01 "HgN/A
5:27 PM73 °FPassing clouds.9 mph27%30.01 "HgN/A
4:30 PM73 °FScattered clouds.9 mph41%30.01 "HgN/A
Weather by CustomWeather, © 2015

See weather overviewHow to use our weather pages